Regional Weather Roundup
Issued by NWS Charleston, SC

Current Version | Previous Version | Text Only | Print | Product List | Glossary Off
Versions: 1 2 3 4 5 6 7 8 9 10 11 12 13 14 15 16 17 18 19 20 21 22 23 24 25 26 27 28 29 30 31 32 33 34 35 36 37 38 39 40 41 42 43 44 45 46 47 48 49 50

000
ASUS42 KCHS 181912
RWRCHS

Regional Weather Roundup
National Weather Service Charleston SC
200 PM EST THU JAN 18 2018

NOTE: "fair" indicates few or no clouds below 12,000 feet with no
significant weather and/or obstructions to visibility.

Not all stations are quality controlled. Use data with caution,
especially dewpoint observations.

SCZ027-030-031-034>040-042>050-182000-
...Southeast South Carolina...

CITY           SKY/WX    TMP DP  RH WIND       PRES   REMARKS
N Charleston   FAIR      45   8  22 NW10G18   30.31F
Waterfront Prk NOT AVBL
Mount Pleasant FAIR      43  10  26 NW16      30.31F
Johns Island   FAIR      45   7  21 NW12      30.31F
Pinopolis        N/A     36  16  44 NW9       30.27F WCI  29
Moncks Corner  FAIR      39  10  30 N9        30.32F WCI  33
Summerville    FAIR      43   7  22 NW9       30.33F
Beaufort MCAS  FAIR      45  10  24 NW12      30.33F
Beaufort Arpt  FAIR      43  12  28 NW13      30.32F HAZE
Hilton Head Is SUNNY     41  10  28 N13G21    30.34F
Walterboro     FAIR      43   9  24 NW10      30.34F
Allendale      FAIR      43   5  21 NE6G13    30.33F

...Southern Midlands and Pee Dee...

CITY           SKY/WX    TMP DP  RH WIND       PRES   REMARKS
Georgetown     FAIR      39   9  28 NW15      30.31F WCI  31
Kingstree      FAIR      39   9  28 W10       30.32F WCI  32
Orangeburg     FAIR      42  10  27 VRB7      30.33F
Barnwell         N/A     43  12  28 CALM      30.33F
Aiken          FAIR      41  12  30 N3        30.35F
Manning        FAIR      39  10  30 MISG      30.33F
Columbia       FAIR      44  12  27 VRB5      30.32F
Sumter         FAIR      42   9  25 NW10      30.30F
Florence       FAIR      40  10  29 NW14      30.31F WCI  32
Myrtle Beach   FAIR      39   9  29 NW15G21   30.30F WCI  31
N Myrtle Beach FAIR      38  10  31 NW12G18   30.28F WCI  30

$$

GAZ063-065-086>088-099>101-113>116-118-119-134>141-150-182000-
...Southeast Georgia...

CITY           SKY/WX    TMP DP  RH WIND       PRES   REMARKS
Savannah Arpt  FAIR      47   5  18 W12       30.34F
Hunter AAF     FAIR      46   7  20 NW9       30.31F
Fort Stewart   FAIR      46   8  21 NW3       30.33F
Statesboro     FAIR      46  -2  13 W3        30.34F
Sylvania       FAIR      45  10  24 NW3       30.34F
Claxton        FAIR      47   7  19 NW6       30.35F

...CSRA, Central and far Southeast Georgia...

CITY           SKY/WX    TMP DP  RH WIND       PRES   REMARKS
Thomson        FAIR      45   5  19 CALM      30.38F
Augusta-Bush   FAIR      46   6  19 CALM      30.33F
Augusta-Daniel FAIR      45   7  21 CALM      30.33F
Swainsboro     FAIR      45  10  24 N5        30.35F
Vidalia        FAIR      46  14  27 N3        30.35F
Eastman        FAIR      45 -26   4 W6        30.39F
Hazlehurst     FAIR      47 -11   8 CALM      30.35F
Alma           FAIR      45   9  23 NW8       30.35F
Waycross       FAIR      45   1  16 N5        30.36F
Jesup          FAIR      46   7  19 W6        30.35F
Baxley         FAIR      43  10  26 N7        30.35F
Brunswick      FAIR      45  10  24 NW5       30.35F
Saint Simons   FAIR      46  11  24 NW7       30.34F

$$

SCZ027-028-034-036>038-045-046-048>050-GAZ119-141-182000-
...Lake and Supplemental Coastal Observations...

STATION/POSITION TIME  TEMP    WIND        PRES    WAVE   SWELL
                       AIR SEA DIR/SP/G            HT/PER HT/PER/DIR
                 (UTC) (F)     (DEG/KT/KT) (MB)    (FT/S) (FT/S/D)
Winyah Bay       1745   35     330/ 11     1027.0
Lake Murray      1820   38     260/  7/  9 1026.4
ACE Basin NERRS  1745   39     340/  5     1028.0
Fort Pulaski     1848   40 45  280/  9/ 10 1027.6F
Sapelo Island    1800   43     320/  7     1029.0

$$

ANZ835-935-AMZ111-154-330-350-352-354-370-450-454-472-182000-
...C-MAN and Buoy Observations...

STATION/POSITION TIME  TEMP    WIND        PRES    WAVE   SWELL
                       AIR SEA DIR/SP/G            HT/PER HT/PER/DIR
                 (UTC) (F)     (DEG/KT/KT) (MB)    (FT/S) (FT/S/D)
Buoy 41004       1900   40 67  320/ 17/ 19 1025.9
Buoy 41008       1850   37 51  320/ 12/ 16 1027.5F   3/11   2/ 40/11
Folly Beach CMAN 1800   40     330/  7/ 13 1027.6F
Capers Nearshore 1808   35 48  320/ 14/ 21 1026.5F
Fripp Nearshore  1808   36 46  350/ 16/ 21 1026.7F


STATION/POSITION TIME  TEMP    WIND        PRES    WAVE   SWELL
                       AIR SEA DIR/SP/G            HT/PER HT/PER/DIR
                 (UTC) (F)     (DEG/KT/KT) (MB)    (FT/S) (FT/S/D)
5E St. Marys GA  NOT AVBL
Frying Pan Buoy  1900   36 65  300/ 17/ 23 1024.8
Buoy 41025       1900   33     300/ 21/ 27 1022.0
Cape Lookout NC  1800          300/ 11/ 14 1023.8F
Buoy 41002       1850   53 70  330/ 23/ 29 1020.1R  14/10  10/340/10
Buoy 41010       NOT AVBL
St Augustine FL  1900   38 49   10/ 15/ 17 1028.1F


$$




USA.gov is the U.S. government's official web portal to all federal, state and local government web resources and services.